| time (UTC) | temp F | wind direction | speed MPH | gust MPH | rain 1hr in | rain 24hr in | rain mn in | humidity % | barometer mb |
| 20260905131908 | 65 | 42 | 1.0 | 4.0 | 0.00 | 0.00 | 0.00 | 96 | 1015.0 |
| 20260905131359 | 65 | 15 | 1.0 | 5.0 | 0.00 | 0.00 | 0.00 | 96 | 1014.8 |
| 20260905130854 | 65 | 19 | 0.0 | 5.0 | 0.00 | 0.00 | 0.00 | 96 | 1014.6 |
| 20260905130358 | 65 | 331 | 0.0 | 3.0 | 0.00 | 0.00 | 0.00 | 96 | 1014.5 |
| 20260905125823 | 65 | 29 | 1.0 | 6.0 | 0.00 | 0.00 | 0.00 | 96 | 1014.4 |
| 20260905125322 | 65 | 27 | 1.0 | 6.0 | 0.00 | 0.00 | 0.00 | 96 | 1014.4 |
| 20260905124823 | 65 | 344 | 1.0 | 4.0 | 0.00 | 0.00 | 0.00 | 96 | 1014.4 |
| 20260905124318 | 65 | 15 | 1.0 | 4.0 | 0.00 | 0.00 | 0.00 | 96 | 1014.0 |
| 20260905123816 | 65 | 14 | 1.0 | 4.0 | 0.00 | 0.00 | 0.00 | 96 | 1014.2 |
| 20260905123313 | 65 | 344 | 0.0 | 4.0 | 0.00 | 0.00 | 0.00 | 96 | 1014.2 |
| 20260905123021 | 65 | 0 | 0.0 | 3.0 | 0.00 | 0.00 | 0.00 | 96 | 1013.9 |
| 20260905122522 | 65 | 347 | 1.0 | 4.0 | 0.00 | 0.00 | 0.00 | 96 | 1013.9 |
| 20260905121757 | 65 | 346 | 1.0 | 4.0 | 0.00 | 0.00 | 0.00 | 96 | 1014.0 |
| 20260905121258 | 65 | 355 | 0.0 | 4.0 | 0.00 | 0.00 | 0.00 | 96 | 1014.1 |
| 20260905121011 | 65 | 355 | 0.0 | 5.0 | 0.00 | 0.00 | 0.00 | 96 | 1014.1 |
| 20260905120228 | 65 | 355 | 1.0 | 5.0 | 0.00 | 0.00 | 0.00 | 96 | 1014.3 |
| 20260905115724 | 65 | 335 | 1.0 | 5.0 | 0.00 | 0.00 | 0.00 | 96 | 1014.3 |
| 20260905115212 | 65 | 43 | 1.0 | 5.0 | 0.00 | 0.00 | 0.00 | 95 | 1014.2 |
| 20260905114714 | 65 | 13 | 1.0 | 4.0 | 0.00 | 0.00 | 0.00 | 95 | 1014.2 |
| 20260905114204 | 65 | 339 | 2.0 | 4.0 | 0.00 | 0.00 | 0.00 | 95 | 1014.2 |
| 20260905113657 | 65 | 11 | 2.0 | 4.0 | 0.00 | 0.00 | 0.00 | 95 | 1014.2 |
| 20260905113151 | 65 | 342 | 2.0 | 4.0 | 0.00 | 0.00 | 0.00 | 95 | 1014.2 |
| 20260905112643 | 65 | 22 | 2.0 | 4.0 | 0.00 | 0.00 | 0.00 | 95 | 1014.2 |
| 20260905112140 | 65 | 341 | 1.0 | 4.0 | 0.00 | 0.00 | 0.00 | 95 | 1014.1 |
| 20260905111902 | 65 | 29 | 0.0 | 4.0 | 0.00 | 0.00 | 0.00 | 95 | 1013.9 |
| 20260905111138 | 65 | 33 | 1.0 | 4.0 | 0.00 | 0.00 | 0.00 | 95 | 1013.9 |
| 20260905110637 | 65 | 5 | 1.0 | 4.0 | 0.00 | 0.00 | 0.00 | 95 | 1013.8 |
| 20260905110350 | 65 | 344 | 0.0 | 3.0 | 0.00 | 0.00 | 0.00 | 95 | 1013.8 |
| 20260905105606 | 65 | 344 | 0.0 | 3.0 | 0.00 | 0.00 | 0.00 | 95 | 1013.8 |
| 20260905105059 | 65 | 329 | 1.0 | 3.0 | 0.00 | 0.00 | 0.00 | 95 | 1013.9 |
| 20260905104550 | 65 | 329 | 1.0 | 3.0 | 0.00 | 0.00 | 0.00 | 95 | 1014.0 |
| 20260905104048 | 65 | 38 | 1.0 | 3.0 | 0.00 | 0.00 | 0.00 | 95 | 1013.8 |
| 20260905103549 | 65 | 37 | 1.0 | 3.0 | 0.00 | 0.00 | 0.00 | 95 | 1013.8 |
| 20260905103048 | 65 | 38 | 0.0 | 3.0 | 0.00 | 0.00 | 0.00 | 95 | 1013.8 |
| 20260905102540 | 65 | 38 | 1.0 | 3.0 | 0.00 | 0.00 | 0.00 | 95 | 1013.8 |
| 20260905102038 | 65 | 38 | 1.0 | 3.0 | 0.00 | 0.00 | 0.00 | 95 | 1013.6 |
| 20260905101537 | 65 | 42 | 1.0 | 3.0 | 0.00 | 0.00 | 0.00 | 95 | 1013.3 |
| 20260905101038 | 65 | 11 | 1.0 | 5.0 | 0.00 | 0.00 | 0.00 | 95 | 1013.2 |
| 20260905100534 | 65 | 12 | 1.0 | 5.0 | 0.00 | 0.00 | 0.00 | 95 | 1013.2 |
| 20260905100031 | 65 | 9 | 1.0 | 5.0 | 0.00 | 0.00 | 0.00 | 95 | 1013.1 |
| 20260905095530 | 65 | 13 | 1.0 | 5.0 | 0.00 | 0.00 | 0.00 | 95 | 1013.1 |
| 20260905095031 | 65 | 54 | 1.0 | 4.0 | 0.00 | 0.00 | 0.00 | 95 | 1013.0 |
| 20260905094530 | 65 | 22 | 1.0 | 8.0 | 0.00 | 0.00 | 0.00 | 95 | 1012.9 |
| 20260905094017 | 65 | 327 | 1.0 | 8.0 | 0.00 | 0.00 | 0.00 | 94 | 1012.9 |
| 20260905093515 | 64 | 348 | 1.0 | 5.0 | 0.00 | 0.00 | 0.00 | 94 | 1012.9 |
| 20260905093013 | 64 | 28 | 1.0 | 5.0 | 0.00 | 0.00 | 0.00 | 94 | 1012.9 |
| 20260905092516 | 64 | 17 | 1.0 | 7.0 | 0.00 | 0.00 | 0.00 | 94 | 1013.0 |
| 20260905092014 | 64 | 12 | 1.0 | 7.0 | 0.00 | 0.00 | 0.00 | 93 | 1012.9 |
| 20260905091511 | 65 | 25 | 2.0 | 6.0 | 0.00 | 0.00 | 0.00 | 92 | 1013.1 |
| 20260905091013 | 65 | 69 | 1.0 | 4.0 | 0.00 | 0.00 | 0.00 | 92 | 1013.2 |
| 20260905090459 | 66 | 355 | 1.0 | 4.0 | 0.00 | 0.00 | 0.00 | 93 | 1013.2 |
| 20260905085956 | 66 | 60 | 1.0 | 4.0 | 0.00 | 0.00 | 0.00 | 92 | 1013.5 |
| 20260905085440 | 66 | 32 | 1.0 | 5.0 | 0.00 | 0.00 | 0.00 | 93 | 1013.6 |
| 20260905084942 | 66 | 33 | 1.0 | 5.0 | 0.00 | 0.00 | 0.00 | 93 | 1013.6 |
| 20260905084428 | 66 | 5 | 1.0 | 4.0 | 0.00 | 0.00 | 0.00 | 93 | 1013.7 |
| 20260905084136 | 66 | 5 | 1.0 | 4.0 | 0.00 | 0.00 | 0.00 | 92 | 1013.7 |
| 20260905083411 | 66 | 30 | 1.0 | 3.0 | 0.00 | 0.00 | 0.00 | 93 | 1013.7 |
| 20260905082855 | 66 | 34 | 1.0 | 3.0 | 0.00 | 0.00 | 0.00 | 92 | 1013.6 |
| 20260905082316 | 66 | 13 | 1.0 | 4.0 | 0.00 | 0.00 | 0.00 | 92 | 1013.7 |
| 20260905081806 | 66 | 13 | 1.0 | 4.0 | 0.00 | 0.00 | 0.00 | 92 | 1013.7 |
| 20260905081301 | 66 | 60 | 1.0 | 4.0 | 0.00 | 0.00 | 0.00 | 92 | 1013.7 |
| 20260905080751 | 66 | 33 | 1.0 | 4.0 | 0.00 | 0.00 | 0.00 | 92 | 1013.8 |
| 20260905080602 | 66 | 33 | 1.0 | 4.0 | 0.00 | 0.00 | 0.00 | 92 | 1013.8 |
| 20260905075243 | 66 | 25 | 1.0 | 4.0 | 0.00 | 0.00 | 0.00 | 92 | 1013.8 |
| 20260905075000 | 66 | 44 | 0.0 | 3.0 | 0.00 | 0.00 | 0.00 | 92 | 1013.7 |
| 20260905074232 | 66 | 42 | 1.0 | 4.0 | 0.00 | 0.00 | 0.00 | 92 | 1013.8 |
| 20260905073732 | 66 | 44 | 1.0 | 6.0 | 0.00 | 0.00 | 0.00 | 92 | 1013.9 |
| 20260905073228 | 66 | 57 | 1.0 | 6.0 | 0.00 | 0.00 | 0.00 | 92 | 1013.8 |
| 20260905072723 | 66 | 5 | 2.0 | 6.0 | 0.00 | 0.00 | 0.00 | 92 | 1013.7 |
| 20260905072705 | 66 | 346 | 2.0 | 8.0 | 0.00 | 0.00 | 0.00 | 92 | 1013.7 |
| 20260905071723 | 66 | 25 | 2.0 | 8.0 | 0.00 | 0.00 | 0.00 | 92 | 1013.5 |
| 20260905071448 | 66 | 30 | 2.0 | 6.0 | 0.00 | 0.00 | 0.00 | 92 | 1013.5 |
| 20260905070719 | 66 | 355 | 1.0 | 5.0 | 0.00 | 0.00 | 0.00 | 92 | 1013.6 |
| 20260905070220 | 66 | 42 | 1.0 | 5.0 | 0.00 | 0.00 | 0.00 | 92 | 1013.6 |
| 20260905065652 | 66 | 44 | 1.0 | 5.0 | 0.00 | 0.00 | 0.00 | 92 | 1013.5 |
| 20260905065147 | 67 | 40 | 1.0 | 5.0 | 0.00 | 0.00 | 0.00 | 92 | 1013.6 |
| 20260905064647 | 67 | 69 | 1.0 | 5.0 | 0.00 | 0.00 | 0.00 | 92 | 1013.7 |
| 20260905064400 | 67 | 36 | 1.0 | 5.0 | 0.00 | 0.00 | 0.00 | 92 | 1013.7 |
| 20260905063639 | 67 | 35 | 1.0 | 4.0 | 0.00 | 0.00 | 0.00 | 92 | 1013.7 |
| 20260905063134 | 67 | 36 | 2.0 | 7.0 | 0.00 | 0.00 | 0.00 | 92 | 1013.6 |
| 20260905062604 | 67 | 9 | 2.0 | 7.0 | 0.00 | 0.00 | 0.00 | 92 | 1013.7 |
| 20260905062102 | 67 | 23 | 2.0 | 8.0 | 0.00 | 0.00 | 0.00 | 92 | 1013.6 |
| 20260905061603 | 67 | 0 | 2.0 | 9.0 | 0.00 | 0.00 | 0.00 | 92 | 1013.6 |
| 20260905061320 | 67 | 5 | 2.0 | 9.0 | 0.00 | 0.00 | 0.00 | 92 | 1013.6 |
| 20260905060558 | 67 | 327 | 3.0 | 9.0 | 0.00 | 0.00 | 0.00 | 92 | 1013.6 |
| 20260905060322 | 67 | 329 | 2.0 | 9.0 | 0.00 | 0.00 | 0.00 | 91 | 1013.6 |
| 20260905055557 | 67 | 0 | 1.0 | 5.0 | 0.00 | 0.00 | 0.00 | 92 | 1013.6 |
| 20260905055057 | 67 | 44 | 2.0 | 9.0 | 0.00 | 0.00 | 0.00 | 92 | 1013.6 |
| 20260905054553 | 67 | 40 | 2.0 | 10.0 | 0.00 | 0.00 | 0.00 | 92 | 1013.6 |
| 20260905054048 | 67 | 13 | 2.0 | 10.0 | 0.00 | 0.00 | 0.00 | 92 | 1013.5 |
| 20260905053547 | 67 | 29 | 2.0 | 6.0 | 0.00 | 0.00 | 0.00 | 91 | 1013.4 |
| 20260905053043 | 67 | 346 | 1.0 | 6.0 | 0.00 | 0.00 | 0.00 | 91 | 1013.4 |
| 20260905052543 | 67 | 5 | 1.0 | 6.0 | 0.00 | 0.00 | 0.00 | 91 | 1013.3 |
| 20260905052054 | 67 | 52 | 2.0 | 6.0 | 0.00 | 0.00 | 0.00 | 91 | 1013.3 |
| 20260905051531 | 67 | 36 | 2.0 | 6.0 | 0.00 | 0.00 | 0.00 | 91 | 1013.3 |
| 20260905051027 | 67 | 58 | 2.0 | 5.0 | 0.00 | 0.00 | 0.00 | 91 | 1013.3 |
| 20260905050511 | 67 | 22 | 2.0 | 6.0 | 0.00 | 0.00 | 0.00 | 91 | 1013.3 |
| 20260905050004 | 67 | 11 | 2.0 | 11.0 | 0.00 | 0.00 | 0.00 | 91 | 1013.4 |
| 20260905044955 | 67 | 48 | 2.0 | 11.0 | 0.00 | 0.00 | 0.00 | 90 | 1013.3 |
| 20260905044456 | 67 | 65 | 2.0 | 11.0 | 0.00 | 0.00 | 0.00 | 90 | 1013.2 |
| 20260905044221 | 67 | 5 | 1.0 | 8.0 | 0.00 | 0.00 | 0.00 | 90 | 1013.3 |
| 20260905043456 | 67 | 5 | 1.0 | 6.0 | 0.00 | 0.00 | 0.00 | 90 | 1013.3 |
| 20260905042946 | 67 | 0 | 1.0 | 6.0 | 0.00 | 0.00 | 0.00 | 90 | 1013.2 |
| 20260905042445 | 67 | 15 | 1.0 | 4.0 | 0.00 | 0.00 | 0.00 | 89 | 1013.2 |
| 20260905041944 | 67 | 31 | 1.0 | 5.0 | 0.00 | 0.00 | 0.00 | 89 | 1013.2 |
| 20260905041445 | 67 | 49 | 1.0 | 5.0 | 0.00 | 0.00 | 0.00 | 89 | 1013.2 |
| 20260905040943 | 67 | 19 | 1.0 | 5.0 | 0.00 | 0.00 | 0.00 | 89 | 1013.4 |
| 20260905040445 | 67 | 13 | 1.0 | 5.0 | 0.00 | 0.00 | 0.00 | 89 | 1013.5 |
| 20260905035943 | 67 | 31 | 1.0 | 8.0 | 0.00 | 0.00 | 0.00 | 89 | 1013.4 |
| 20260905035445 | 67 | 346 | 2.0 | 8.0 | 0.00 | 0.00 | 0.00 | 88 | 1013.3 |
| 20260905034947 | 68 | 34 | 2.0 | 8.0 | 0.00 | 0.00 | 0.00 | 88 | 1013.4 |
| 20260905034444 | 68 | 22 | 1.0 | 8.0 | 0.00 | 0.00 | 0.00 | 88 | 1013.3 |
| 20260905033940 | 68 | 11 | 1.0 | 6.0 | 0.00 | 0.00 | 0.00 | 88 | 1013.2 |
| 20260905033437 | 68 | 325 | 1.0 | 3.0 | 0.00 | 0.00 | 0.00 | 88 | 1013.1 |
| 20260905032941 | 68 | 0 | 1.0 | 6.0 | 0.00 | 0.00 | 0.00 | 88 | 1013.2 |
| 20260905032432 | 69 | 30 | 1.0 | 6.0 | 0.00 | 0.00 | 0.00 | 87 | 1013.2 |
| 20260905031931 | 69 | 39 | 1.0 | 6.0 | 0.00 | 0.00 | 0.00 | 87 | 1013.1 |
| 20260905031427 | 69 | 12 | 1.0 | 6.0 | 0.00 | 0.00 | 0.00 | 87 | 1013.2 |
| 20260905030929 | 69 | 25 | 1.0 | 5.0 | 0.00 | 0.00 | 0.00 | 87 | 1013.2 |
| 20260905030426 | 69 | 37 | 1.0 | 5.0 | 0.00 | 0.00 | 0.00 | 87 | 1013.1 |
| 20260905030144 | 70 | 116 | 1.0 | 5.0 | 0.00 | 0.00 | 0.00 | 87 | 1013.1 |
| 20260905025418 | 70 | 5 | 2.0 | 8.0 | 0.00 | 0.00 | 0.00 | 86 | 1013.1 |
| 20260905024918 | 70 | 31 | 2.0 | 8.0 | 0.00 | 0.00 | 0.00 | 86 | 1013.0 |
| 20260905024412 | 70 | 31 | 2.0 | 5.0 | 0.00 | 0.00 | 0.00 | 86 | 1013.0 |
| 20260905023912 | 70 | 22 | 2.0 | 5.0 | 0.00 | 0.00 | 0.00 | 86 | 1013.0 |
| 20260905023416 | 71 | 5 | 1.0 | 6.0 | 0.00 | 0.00 | 0.00 | 86 | 1013.0 |
| 20260905022905 | 71 | 30 | 1.0 | 6.0 | 0.00 | 0.00 | 0.00 | 86 | 1012.8 |
| 20260905022407 | 71 | 5 | 1.0 | 5.0 | 0.00 | 0.00 | 0.00 | 85 | 1012.8 |
| 20260905021850 | 71 | 327 | 2.0 | 7.0 | 0.00 | 0.00 | 0.00 | 85 | 1012.7 |
| 20260905021347 | 72 | 351 | 3.0 | 9.0 | 0.00 | 0.00 | 0.00 | 85 | 1012.6 |
| 20260905021103 | 72 | 15 | 2.0 | 9.0 | 0.00 | 0.00 | 0.00 | 84 | 1012.6 |
| 20260905020343 | 72 | 19 | 2.0 | 7.0 | 0.00 | 0.00 | 0.00 | 84 | 1012.6 |
| 20260905015843 | 73 | 5 | 2.0 | 9.0 | 0.00 | 0.00 | 0.00 | 84 | 1012.6 |
| 20260905015607 | 73 | 342 | 2.0 | 9.0 | 0.00 | 0.00 | 0.00 | 83 | 1012.5 |
| 20260905014836 | 73 | 30 | 2.0 | 6.0 | 0.00 | 0.00 | 0.00 | 83 | 1012.5 |
| 20260905014331 | 74 | 344 | 2.0 | 5.0 | 0.00 | 0.00 | 0.00 | 83 | 1012.4 |
| 20260905013822 | 74 | 5 | 2.0 | 6.0 | 0.00 | 0.00 | 0.00 | 83 | 1012.4 |
| 20260905013323 | 74 | 355 | 2.0 | 6.0 | 0.00 | 0.00 | 0.00 | 82 | 1012.4 |
| 20260905012819 | 75 | 9 | 2.0 | 6.0 | 0.00 | 0.00 | 0.00 | 82 | 1012.3 |
| 20260905012316 | 75 | 24 | 2.0 | 5.0 | 0.00 | 0.00 | 0.00 | 81 | 1012.2 |
| 20260905011817 | 75 | 5 | 2.0 | 5.0 | 0.00 | 0.00 | 0.00 | 81 | 1012.1 |
| 20260905011312 | 76 | 60 | 2.0 | 10.0 | 0.00 | 0.00 | 0.00 | 80 | 1012.0 |
| 20260905010806 | 76 | 66 | 3.0 | 10.0 | 0.00 | 0.00 | 0.00 | 80 | 1012.0 |
| 20260905010301 | 76 | 31 | 3.0 | 8.0 | 0.00 | 0.00 | 0.00 | 79 | 1012.0 |
| 20260905005758 | 77 | 17 | 3.0 | 8.0 | 0.00 | 0.00 | 0.00 | 79 | 1011.8 |
| 20260905005256 | 77 | 335 | 3.0 | 8.0 | 0.00 | 0.00 | 0.00 | 78 | 1011.7 |
| 20260905004754 | 78 | 30 | 2.0 | 8.0 | 0.00 | 0.00 | 0.00 | 78 | 1011.6 |
| 20260905004252 | 78 | 333 | 2.0 | 8.0 | 0.00 | 0.00 | 0.00 | 78 | 1011.8 |
| 20260905003751 | 79 | 330 | 2.0 | 6.0 | 0.00 | 0.00 | 0.00 | 77 | 1011.8 |
| 20260905003509 | 79 | 5 | 3.0 | 10.0 | 0.00 | 0.00 | 0.00 | 77 | 1011.7 |
| 20260905002747 | 79 | 331 | 3.0 | 10.0 | 0.00 | 0.00 | 0.00 | 76 | 1011.7 |
| 20260905002239 | 80 | 347 | 3.0 | 10.0 | 0.00 | 0.00 | 0.00 | 76 | 1011.6 |
| 20260905001834 | 80 | 333 | 3.0 | 10.0 | 0.00 | 0.00 | 0.00 | 75 | 1011.6 |
| 20260905000734 | 81 | 348 | 2.0 | 9.0 | 0.00 | 0.00 | 0.00 | 75 | 1011.2 |
| 20260905000226 | 81 | 5 | 2.0 | 9.0 | 0.00 | 0.00 | 0.00 | 74 | 1011.1 |
| 20260904235725 | 81 | 34 | 2.0 | 8.0 | 0.00 | 0.00 | 0.00 | 74 | 1011.1 |
| 20260904235224 | 82 | 331 | 2.0 | 8.0 | 0.00 | 0.00 | 0.00 | 74 | 1011.0 |
| 20260904234721 | 82 | 32 | 2.0 | 8.0 | 0.00 | 0.00 | 0.00 | 74 | 1011.1 |
| 20260904234212 | 82 | 347 | 3.0 | 6.0 | 0.00 | 0.00 | 0.00 | 74 | 1011.1 |
| 20260904233709 | 82 | 5 | 2.0 | 6.0 | 0.00 | 0.00 | 0.00 | 74 | 1011.1 |
| 20260904233208 | 83 | 0 | 2.0 | 7.0 | 0.00 | 0.00 | 0.00 | 73 | 1011.0 |
| 20260904232705 | 83 | 19 | 2.0 | 7.0 | 0.00 | 0.00 | 0.00 | 72 | 1011.1 |
| 20260904232146 | 83 | 13 | 3.0 | 9.0 | 0.00 | 0.00 | 0.00 | 72 | 1011.1 |
| 20260904231640 | 84 | 5 | 3.0 | 9.0 | 0.00 | 0.00 | 0.00 | 72 | 1011.0 |
| 20260904231135 | 84 | 30 | 3.0 | 9.0 | 0.00 | 0.00 | 0.00 | 71 | 1010.9 |
| 20260904230636 | 84 | 347 | 3.0 | 9.0 | 0.00 | 0.00 | 0.00 | 71 | 1010.9 |
| 20260904230128 | 85 | 346 | 2.0 | 6.0 | 0.00 | 0.00 | 0.00 | 70 | 1010.9 |
| 20260904225610 | 85 | 17 | 2.0 | 6.0 | 0.00 | 0.00 | 0.00 | 69 | 1010.9 |
| 20260904225107 | 85 | 55 | 2.0 | 8.0 | 0.00 | 0.00 | 0.00 | 69 | 1010.9 |
| 20260904224606 | 85 | 344 | 3.0 | 8.0 | 0.00 | 0.00 | 0.00 | 69 | 1010.9 |
| 20260904224107 | 86 | 344 | 3.0 | 9.0 | 0.00 | 0.00 | 0.00 | 69 | 1010.8 |
| 20260904223607 | 86 | 36 | 2.0 | 9.0 | 0.00 | 0.00 | 0.00 | 68 | 1010.7 |
| 20260904223320 | 86 | 43 | 3.0 | 8.0 | 0.00 | 0.00 | 0.00 | 68 | 1010.7 |
| 20260904222557 | 87 | 346 | 3.0 | 8.0 | 0.00 | 0.00 | 0.00 | 66 | 1010.6 |
| 20260904222058 | 88 | 5 | 2.0 | 9.0 | 0.00 | 0.00 | 0.00 | 66 | 1010.5 |
| 20260904221556 | 89 | 36 | 2.0 | 9.0 | 0.00 | 0.00 | 0.00 | 64 | 1010.5 |
| 20260904221312 | 89 | 43 | 2.0 | 6.0 | 0.00 | 0.00 | 0.00 | 63 | 1010.5 |
| 20260904220550 | 89 | 9 | 2.0 | 7.0 | 0.00 | 0.00 | 0.00 | 63 | 1010.4 |
| 20260904220051 | 90 | 334 | 3.0 | 10.0 | 0.00 | 0.00 | 0.00 | 64 | 1010.3 |
| 20260904215546 | 90 | 344 | 3.0 | 10.0 | 0.00 | 0.00 | 0.00 | 66 | 1010.3 |
| 20260904215046 | 89 | 5 | 2.0 | 8.0 | 0.00 | 0.00 | 0.00 | 65 | 1010.2 |
| 20260904214550 | 89 | 51 | 2.0 | 6.0 | 0.00 | 0.00 | 0.00 | 65 | 1010.2 |
| 20260904214043 | 89 | 325 | 1.0 | 6.0 | 0.00 | 0.00 | 0.00 | 64 | 1010.2 |
| 20260904213539 | 89 | 27 | 2.0 | 7.0 | 0.00 | 0.00 | 0.00 | 66 | 1010.3 |
| 20260904213041 | 89 | 182 | 2.0 | 7.0 | 0.00 | 0.00 | 0.00 | 65 | 1010.3 |
| 20260904212540 | 89 | 5 | 1.0 | 5.0 | 0.00 | 0.00 | 0.00 | 66 | 1010.2 |
| 20260904212041 | 89 | 35 | 2.0 | 7.0 | 0.00 | 0.00 | 0.00 | 67 | 1010.3 |
| 20260904211541 | 89 | 46 | 1.0 | 7.0 | 0.00 | 0.00 | 0.00 | 65 | 1010.3 |
| 20260904211026 | 89 | 355 | 1.0 | 5.0 | 0.00 | 0.00 | 0.00 | 66 | 1010.4 |
| 20260904210520 | 89 | 339 | 2.0 | 6.0 | 0.00 | 0.00 | 0.00 | 66 | 1010.4 |
| 20260904210231 | 89 | 16 | 2.0 | 9.0 | 0.00 | 0.00 | 0.00 | 66 | 1010.4 |
| 20260904205737 | 89 | 22 | 2.0 | 9.0 | 0.00 | 0.00 | 0.00 | 65 | 1010.5 |
| 20260904205008 | 89 | 321 | 2.0 | 9.0 | 0.00 | 0.00 | 0.00 | 65 | 1010.5 |
| 20260904204504 | 89 | 331 | 2.0 | 9.0 | 0.00 | 0.00 | 0.00 | 66 | 1010.5 |
| 20260904203957 | 88 | 30 | 3.0 | 9.0 | 0.00 | 0.00 | 0.00 | 67 | 1010.4 |
| 20260904203454 | 88 | 31 | 3.0 | 9.0 | 0.00 | 0.00 | 0.00 | 67 | 1010.5 |
| 20260904203214 | 87 | 300 | 2.0 | 9.0 | 0.00 | 0.00 | 0.00 | 67 | 1010.5 |
| 20260904202454 | 87 | 344 | 2.0 | 9.0 | 0.00 | 0.00 | 0.00 | 68 | 1010.5 |
| 20260904201953 | 87 | 27 | 2.0 | 8.0 | 0.00 | 0.00 | 0.00 | 68 | 1010.5 |
| 20260904201448 | 87 | 50 | 2.0 | 7.0 | 0.00 | 0.00 | 0.00 | 68 | 1010.5 |
| 20260904201431 | 86 | 5 | 3.0 | 9.0 | 0.00 | 0.00 | 0.00 | 69 | 1010.5 |
| 20260904200446 | 86 | 5 | 3.0 | 9.0 | 0.00 | 0.00 | 0.00 | 71 | 1010.5 |
| 20260904195947 | 86 | 20 | 3.0 | 7.0 | 0.00 | 0.00 | 0.00 | 70 | 1010.5 |
| 20260904195707 | 85 | 10 | 3.0 | 9.0 | 0.00 | 0.00 | 0.00 | 73 | 1010.4 |
| 20260904194939 | 85 | 44 | 4.0 | 12.0 | 0.00 | 0.00 | 0.00 | 76 | 1010.5 |
| 20260904194437 | 84 | 49 | 4.0 | 12.0 | 0.00 | 0.00 | 0.00 | 76 | 1010.5 |
| 20260904193934 | 84 | 5 | 2.0 | 8.0 | 0.00 | 0.00 | 0.00 | 76 | 1010.6 |
| 20260904193433 | 83 | 315 | 2.0 | 8.0 | 0.00 | 0.00 | 0.00 | 78 | 1010.6 |
| 20260904192924 | 83 | 9 | 2.0 | 7.0 | 0.00 | 0.00 | 0.00 | 79 | 1010.6 |
| 20260904192645 | 82 | 327 | 2.0 | 7.0 | 0.00 | 0.00 | 0.00 | 81 | 1010.7 |
| 20260904192142 | 82 | 331 | 2.0 | 6.0 | 0.00 | 0.00 | 0.00 | 79 | 1010.7 |
| 20260904191412 | 82 | 340 | 1.0 | 5.0 | 0.00 | 0.00 | 0.00 | 81 | 1010.6 |
| 20260904190909 | 82 | 34 | 2.0 | 8.0 | 0.00 | 0.00 | 0.00 | 81 | 1010.6 |
| 20260904190621 | 81 | 50 | 2.0 | 8.0 | 0.00 | 0.00 | 0.00 | 82 | 1010.7 |
| 20260904185901 | 80 | 20 | 1.0 | 7.0 | 0.00 | 0.00 | 0.00 | 81 | 1010.6 |
| 20260904185402 | 80 | 333 | 1.0 | 5.0 | 0.00 | 0.00 | 0.00 | 82 | 1010.6 |
| 20260904185121 | 80 | 327 | 2.0 | 9.0 | 0.00 | 0.00 | 0.00 | 83 | 1010.7 |
| 20260904184622 | 79 | 344 | 3.0 | 9.0 | 0.00 | 0.00 | 0.00 | 84 | 1010.8 |
| 20260904183854 | 79 | 336 | 3.0 | 8.0 | 0.00 | 0.00 | 0.00 | 84 | 1010.8 |
| 20260904183352 | 79 | 47 | 2.0 | 8.0 | 0.00 | 0.00 | 0.00 | 83 | 1010.8 |
| 20260904183114 | 78 | 333 | 2.0 | 7.0 | 0.00 | 0.00 | 0.00 | 84 | 1010.8 |
| 20260904182612 | 78 | 23 | 3.0 | 9.0 | 0.00 | 0.00 | 0.00 | 84 | 1010.8 |
| 20260904181845 | 78 | 36 | 3.0 | 9.0 | 0.00 | 0.00 | 0.00 | 84 | 1010.8 |
| 20260904181341 | 78 | 344 | 3.0 | 8.0 | 0.00 | 0.00 | 0.00 | 84 | 1010.8 |
| 20260904181059 | 77 | 12 | 3.0 | 7.0 | 0.00 | 0.00 | 0.00 | 84 | 1010.8 |
| 20260904180335 | 77 | 17 | 3.0 | 9.0 | 0.00 | 0.00 | 0.00 | 85 | 1010.8 |
| 20260904175830 | 76 | 5 | 3.0 | 9.0 | 0.00 | 0.00 | 0.00 | 85 | 1010.8 |
| 20260904175324 | 76 | 36 | 3.0 | 9.0 | 0.00 | 0.00 | 0.00 | 85 | 1010.8 |
| 20260904175317 | 76 | 46 | 3.0 | 9.0 | 0.00 | 0.00 | 0.00 | 85 | 1010.8 |
| 20260904174537 | 76 | 5 | 3.0 | 8.0 | 0.00 | 0.00 | 0.00 | 86 | 1010.8 |
| 20260904173816 | 76 | 323 | 3.0 | 9.0 | 0.00 | 0.00 | 0.00 | 85 | 1010.9 |
| 20260904173317 | 76 | 346 | 3.0 | 11.0 | 0.00 | 0.00 | 0.00 | 86 | 1010.8 |
| 20260904172814 | 76 | 33 | 3.0 | 11.0 | 0.00 | 0.00 | 0.00 | 86 | 1010.8 |
| 20260904172532 | 76 | 5 | 3.0 | 9.0 | 0.00 | 0.00 | 0.00 | 87 | 1010.9 |
| 20260904171811 | 76 | 328 | 2.0 | 8.0 | 0.00 | 0.00 | 0.00 | 87 | 1010.9 |
| 20260904171312 | 75 | 29 | 2.0 | 8.0 | 0.00 | 0.00 | 0.00 | 87 | 1010.9 |
| 20260904171025 | 75 | 64 | 3.0 | 9.0 | 0.00 | 0.00 | 0.00 | 88 | 1010.8 |
| 20260904170302 | 75 | 26 | 3.0 | 9.0 | 0.00 | 0.00 | 0.00 | 89 | 1010.8 |
| 20260904165802 | 75 | 343 | 2.0 | 8.0 | 0.00 | 0.00 | 0.00 | 89 | 1010.7 |
| 20260904165305 | 75 | 313 | 2.0 | 8.0 | 0.00 | 0.00 | 0.00 | 89 | 1010.7 |
| 20260904164756 | 75 | 355 | 1.0 | 5.0 | 0.00 | 0.00 | 0.00 | 90 | 1010.6 |
| 20260904164255 | 75 | 63 | 1.0 | 7.0 | 0.00 | 0.00 | 0.00 | 90 | 1010.6 |
| 20260904164228 | 75 | 326 | 1.0 | 7.0 | 0.00 | 0.00 | 0.00 | 91 | 1010.5 |
| 20260904163248 | 75 | 44 | 2.0 | 6.0 | 0.00 | 0.00 | 0.00 | 91 | 1010.5 |
| 20260904162739 | 75 | 32 | 2.0 | 5.0 | 0.00 | 0.00 | 0.00 | 91 | 1010.4 |
| 20260904162238 | 74 | 57 | 2.0 | 7.0 | 0.00 | 0.00 | 0.00 | 91 | 1010.3 |
| 20260904161736 | 74 | 27 | 3.0 | 7.0 | 0.00 | 0.00 | 0.00 | 91 | 1010.2 |
| 20260904161239 | 74 | 36 | 2.0 | 5.0 | 0.00 | 0.00 | 0.00 | 91 | 1010.2 |
| 20260904160732 | 74 | 61 | 2.0 | 9.0 | 0.00 | 0.00 | 0.00 | 92 | 1010.1 |
| 20260904160216 | 74 | 52 | 2.0 | 9.0 | 0.00 | 0.00 | 0.00 | 92 | 1010.1 |
| 20260904155717 | 74 | 25 | 1.0 | 7.0 | 0.00 | 0.00 | 0.00 | 92 | 1010.1 |
| 20260904155214 | 74 | 347 | 2.0 | 8.0 | 0.00 | 0.00 | 0.00 | 92 | 1010.1 |
| 20260904154933 | 74 | 25 | 3.0 | 8.0 | 0.00 | 0.00 | 0.00 | 92 | 1010.1 |
| 20260904154201 | 74 | 325 | 2.0 | 6.0 | 0.00 | 0.00 | 0.00 | 92 | 1010.0 |
| 20260904153658 | 74 | 346 | 2.0 | 7.0 | 0.00 | 0.00 | 0.00 | 92 | 1009.9 |
| 20260904153153 | 74 | 26 | 2.0 | 7.0 | 0.00 | 0.00 | 0.00 | 93 | 1009.9 |
| 20260904152654 | 74 | 355 | 1.0 | 6.0 | 0.00 | 0.00 | 0.00 | 93 | 1009.8 |
| 20260904152152 | 73 | 15 | 1.0 | 5.0 | 0.00 | 0.00 | 0.00 | 93 | 1009.8 |
| 20260904151653 | 73 | 15 | 3.0 | 8.0 | 0.00 | 0.00 | 0.00 | 93 | 1009.6 |
| 20260904151410 | 73 | 327 | 3.0 | 8.0 | 0.00 | 0.00 | 0.00 | 93 | 1009.6 |
| 20260904150652 | 73 | 340 | 2.0 | 5.0 | 0.00 | 0.00 | 0.00 | 93 | 1009.5 |
| 20260904150150 | 73 | 333 | 2.0 | 5.0 | 0.00 | 0.00 | 0.00 | 93 | 1009.5 |
| 20260904145905 | 73 | 317 | 2.0 | 5.0 | 0.00 | 0.00 | 0.00 | 93 | 1009.5 |
| 20260904145146 | 73 | 322 | 2.0 | 5.0 | 0.00 | 0.00 | 0.00 | 93 | 1009.4 |
| 20260904144643 | 73 | 338 | 1.0 | 4.0 | 0.00 | 0.00 | 0.00 | 93 | 1009.3 |
| 20260904144140 | 72 | 26 | 1.0 | 3.0 | 0.00 | 0.00 | 0.00 | 93 | 1009.3 |
| 20260904143628 | 72 | 35 | 1.0 | 3.0 | 0.00 | 0.00 | 0.00 | 93 | 1009.3 |
| 20260904143131 | 72 | 40 | 1.0 | 3.0 | 0.00 | 0.00 | 0.00 | 93 | 1009.2 |
| 20260904142602 | 72 | 46 | 0.0 | 2.0 | 0.00 | 0.00 | 0.00 | 94 | 1009.1 |
| 20260904142058 | 72 | 46 | 0.0 | 2.0 | 0.00 | 0.00 | 0.00 | 94 | 1009.0 |
| 20260904141556 | 71 | 47 | 0.0 | 1.0 | 0.00 | 0.00 | 0.00 | 94 | 1008.9 |
| 20260904141318 | 71 | 46 | 0.0 | 0.0 | 0.00 | 0.00 | 0.00 | 94 | 1008.7 |
| 20260904140552 | 71 | 47 | 0.0 | 1.0 | 0.00 | 0.00 | 0.00 | 94 | 1008.7 |
| 20260904140038 | 71 | 47 | 0.0 | 2.0 | 0.00 | 0.00 | 0.00 | 94 | 1008.8 |
| 20260904135524 | 70 | 47 | 0.0 | 2.0 | 0.00 | 0.00 | 0.00 | 94 | 1008.7 |
| 20260904135009 | 70 | 34 | 0.0 | 2.0 | 0.00 | 0.00 | 0.00 | 94 | 1008.7 |
| 20260904134518 | 70 | 28 | 0.0 | 1.0 | 0.00 | 0.00 | 0.00 | 94 | 1008.8 |
| 20260904134010 | 70 | 28 | 0.0 | 1.0 | 0.00 | 0.00 | 0.00 | 94 | 1008.8 |
| 20260904133731 | 70 | 28 | 0.0 | 1.0 | 0.00 | 0.00 | 0.00 | 94 | 1008.8 |
| 20260904133000 | 70 | 28 | 0.0 | 1.0 | 0.00 | 0.00 | 0.00 | 94 | 1008.8 |
| 20260904132442 | 70 | 28 | 0.0 | 3.0 | 0.00 | 0.00 | 0.00 | 94 | 1008.8 |